CZ-3B DEB, 42458

Orbit data source: Space-Track

CZ-3B DEB, 42458 is space debris in HEO originally from a launch on Sat, 04 Sep 2010 UTC launched from the Xichang Space Center, China (XSC). Debris objects in space refer to the collection of defunct objects orbiting the Earth. Examples of debris include non-operational satellites, rocket bodies, and fragments generated from explosions, collisions, or faulty payload assembly.

Loading next visibility...
Identifier
42458, 2010-042Z
Orbit
HEO
Country
Flag of CNCN / PRC
Related business
Manufacturer
CALT
Mission
Spacecraft
Bus & Motor
Unknown
Mass
Unknown
Launch date (UTC)
2010-09-04 (16 years ago)
Launch vehicle
Unknown
Launch site
Xichang Space Center, China (XSC)
Object type
Payload
Rocket body
Debris
Shape & HBR
Unknown shape, 0.1 m
Radar Cross Section
Medium (>0.1 m² and <1 m²)

Expand to show TLE details & history
Last TLE update: 3 days ago

TLE from 3 days ago
0 CZ-3B DEB
1 42458U 10042Z   26170.31884086  .00000309  00000-0  91889-2 0  9993
2 42458  29.7730 252.5503 7525040 230.1159  35.5364  1.81310182 76519
Epoch: 2026-06-19T07:39Z
TLE epoch observation values (Epoch: 2026-06-19T07:39:07.850Z)
Latitude
0.00001°
Longitude
-129.66539°
Altitude
17,517.454 km
Speed
4.397 km/s
True Right ascension
16h 50m 40s
True Declination
0° 00' 00"
Sunlit
Object was in daylight at epoch
Visualization orbit readout
Latitude
Unknown
Longitude
Unknown
Altitude
Unknown
Speed
Unknown
Apparent Right ascension
Unknown
Apparent Declination
Unknown
Sunlit
N/A
Visualization observer readout
Local Sidereal Time
21:38:23
Azimuth
Unknown
Elevation
Unknown
Doppler factor
Unknown
Orbital elements
Apogee altitude
43,414.517 km
Perigee altitude
653.791 km
Semi-major axis
28,412.291 km
Eccentricity
0.7525
Inclination
29.773°
RAAN
252.5503°
Arg. of periapsis
230.1159°
True anomaly
129.94035°
Mean anomaly
35.5364°
Eccentric anomaly
77.65475°
Mean motion
0.45319 °/min
Orbital period
794.36 mins
BSTAR
0.0091889
Loading maneuver chart data...
Computing Atmospheric mass density...
Loading historical data...
Loading historical data...
Loading historical data...
Loading historical data...
Loading historical data...
Loading historical data...
Loading historical data...

Documentation

Showing up to 5 results
|